Flag for U.S.A. Weather past 2 weeks in Harrisburg, Pennsylvania, U.S.A.

Now
75 °F

Sunny.


Feels Like: 77 °F
Forecast: 61 / 79 °F
Wind: 5 mph from South

Location: Capital City Airport

Current Time: Jul 2, 2015 at 6:05:37 PM

Latest Report: Jul 2, 2015 at 4:56 PM


Visibility: 10 mi

Pressure: 29.89 "Hg

Humidity: 66%

Dew point: 63 °F

Location of HarrisburgLocation

Historic Weather in Harrisburg — Graph

°F

Harrisburg temperature yesterday

Maximum temperature yesterday: 81 °F (at 1:56 PM)
Minimum temperature yesterday: 66 °F (at 5:56 AM)
Average temperature yesterday: 73 °F

Past Weeks' High & Low Weather Summary

 TemperatureHumidityPressure
High89 °F (Jun 23, 1:56 PM)93% (Jun 18, 3:56 AM)30.11 "Hg (Jun 18, 3:56 AM)
Low56 °F (Jun 29, 4:56 AM)36% (Jun 22, 3:56 PM)29.68 "Hg (Jun 28, 1:56 AM)
Average72 °F71%29.92 "Hg
* Reported Jun 17 3:56 PM — Jul 2 3:56 PM, Harrisburg, Weather by CustomWeather, © 2015

Note: Actual official high and low records may vary slightly from our data, if they occured in-between our weather recording intervals... More about our weather records

Advertising

Harrisburg weather history for previous 24 hours

 ConditionsComfort  
Time TempWeatherWind HumidityBarometerVisibility
3:56 PM
Thu, Jul 2
75 °FSunny.3 mph60%29.89 "Hg10 mi
2:56 PM75 °FMore clouds than sun.5 mph58%29.90 "Hg10 mi
1:56 PM77 °FPartly sunny.3 mph54%29.90 "Hg10 mi
12:56 PM76 °FScattered clouds.No wind56%29.90 "Hg10 mi
11:56 AM76 °FSunny.No wind58%29.90 "Hg10 mi
10:56 AM76 °FSunny.No wind56%29.91 "Hg10 mi
9:56 AM74 °FSunny.No wind64%29.91 "Hg10 mi
8:56 AM71 °FSunny.No wind68%29.92 "Hg9 mi
7:56 AM67 °FSunny.3 mph79%29.92 "Hg6 mi
6:56 AM62 °FFog.No wind90%29.90 "Hg6 mi
5:56 AM61 °FFog.No wind90%29.90 "Hg5 mi
4:56 AM61 °FPassing clouds.3 mph90%29.90 "Hg7 mi
3:56 AM63 °FPassing clouds.No wind87%29.89 "Hg8 mi
2:56 AM64 °FPassing clouds.5 mph81%29.90 "Hg9 mi
1:56 AM64 °FClear.5 mph84%29.90 "Hg8 mi
12:56 AM64 °FClear.5 mph87%29.90 "Hg8 mi
11:56 PM
Wed, Jul 1
68 °FClear.No wind73%29.91 "Hg9 mi
10:56 PM67 °FPassing clouds.No wind76%29.90 "Hg10 mi
9:56 PM71 °FClear.5 mph66%29.90 "Hg10 mi
8:56 PM74 °FPassing clouds.5 mph57%29.87 "Hg10 mi
7:56 PM77 °FPartly sunny.7 mph50%29.85 "Hg10 mi
6:56 PM79 °FPartly sunny.9 mph47%29.83 "Hg10 mi
Weather by CustomWeather, © 2015

See weather overviewHow to use our weather pages